Total_Precipitation_Accumulation
0.00 0.01 0.02 0.04 0.07 0.08 0.04 0.01 0.01 0.01 0.03 0.04 0.08 0.12 0.14 0.17 0.21 0.28 0.32 0.29 0.25 0.19 0.31 0.51 0.59 0.62 0.75 0.87 0.84 0.70 0.67 0.60 0.55 0.47 0.43 0.43 0.53 0.36 0.26 0.18 0.03 0.00 0.00
0.00 0.01 0.07 0.16 0.16 0.05 0.00 0.00 0.00 0.01 0.02 0.04 0.05 0.07 0.11 0.14 0.15 0.17 0.19 0.24 0.19 0.13 0.11 0.27 0.53 0.66 0.68 0.76 0.82 0.78 0.66 0.63 0.57 0.45 0.40 0.50 0.56 0.44 0.33 0.18 0.05 0.01 0.00
0.10 0.21 0.31 0.25 0.07 0.00 0.00 0.00 0.00 0.00 0.00 0.00 0.03 0.05 0.07 0.08 0.11 0.13 0.15 0.16 0.17 0.17 0.14 0.05 0.08 0.15 0.30 0.58 0.61 0.58 0.60 0.65 0.67 0.60 0.56 0.45 0.41 0.38 0.39 0.18 0.10 0.05 0.00
0.26 0.36 0.20 0.05 0.00 0.00 0.00 0.00 0.00 0.00 0.00 0.00 0.00 0.03 0.06 0.09 0.06 0.06 0.11 0.16 0.24 0.22 0.21 0.22 0.07 0.04 0.07 0.18 0.36 0.44 0.45 0.51 0.56 0.51 0.54 0.61 0.55 0.42 0.28 0.21 0.15 0.08 0.03
0.21 0.19 0.23 0.15 0.01 0.00 0.00 0.00 0.00 0.00 0.00 0.00 0.00 0.00 0.02 0.07 0.11 0.10 0.06 0.07 0.11 0.17 0.27 0.27 0.20 0.14 0.09 0.09 0.21 0.46 0.55 0.49 0.46 0.40 0.42 0.51 0.61 0.49 0.32 0.19 0.14 0.11 0.05
0.16 0.20 0.20 0.01 0.00 0.00 0.00 0.00 0.00 0.00 0.00 0.00 0.00 0.00 0.00 0.01 0.06 0.10 0.13 0.13 0.09 0.12 0.12 0.16 0.24 0.31 0.25 0.26 0.20 0.22 0.30 0.43 0.43 0.32 0.29 0.30 0.33 0.27 0.20 0.17 0.17 0.15 0.15
0.36 0.22 0.06 0.01 0.00 0.00 0.00 0.00 0.00 0.00 0.00 0.00 0.01 0.01 0.01 0.01 0.04 0.03 0.08 0.16 0.21 0.25 0.22 0.25 0.28 0.28 0.34 0.36 0.50 0.46 0.29 0.29 0.38 0.34 0.24 0.13 0.12 0.14 0.16 0.18 0.13 0.09 0.05
0.37 0.17 0.04 0.00 0.00 0.00 0.00 0.00 0.00 0.00 0.00 0.00 0.00 0.01 0.01 0.02 0.04 0.01 0.01 0.07 0.20 0.27 0.39 0.35 0.33 0.37 0.42 0.46 0.59 0.82 0.59 0.37 0.33 0.35 0.31 0.22 0.15 0.09 0.08 0.08 0.09 0.15 0.17
0.03 0.00 0.00 0.00 0.00 0.00 0.00 0.00 0.00 0.00 0.00 0.01 0.02 0.03 0.05 0.05 0.07 0.03 0.03 0.03 0.11 0.23 0.34 0.37 0.37 0.36 0.55 0.64 0.57 0.71 0.74 0.63 0.59 0.55 0.40 0.35 0.38 0.38 0.28 0.35 0.41 0.34 0.27
0.00 0.00 0.00 0.00 0.00 0.00 0.00 0.00 0.00 0.01 0.01 0.01 0.01 0.03 0.09 0.11 0.16 0.09 0.12 0.09 0.11 0.20 0.28 0.41 0.46 0.39 0.47 0.52 0.65 0.68 0.64 0.62 0.70 0.85 0.71 0.57 0.52 0.45 0.46 0.36 0.21 0.10 0.06
0.00 0.00 0.00 0.00 0.00 0.00 0.00 0.00 0.01 0.01 0.01 0.01 0.02 0.02 0.03 0.05 0.09 0.11 0.11 0.10 0.11 0.21 0.30 0.30 0.41 0.50 0.52 0.49 0.52 0.50 0.51 0.48 0.50 0.61 0.65 0.56 0.55 0.58 0.52 0.32 0.19 0.11 0.04
0.00 0.00 0.00 0.00 0.00 0.00 0.00 0.00 0.00 0.01 0.00 0.01 0.02 0.03 0.05 0.05 0.06 0.08 0.09 0.11 0.19 0.16 0.20 0.23 0.32 0.50 0.57 0.64 0.64 0.56 0.55 0.59 0.64 0.73 0.79 0.72 0.58 0.50 0.47 0.44 0.36 0.24 0.11
0.00 0.00 0.00 0.00 0.00 0.00 0.00 0.00 0.01 0.01 0.01 0.01 0.02 0.04 0.07 0.09 0.11 0.14 0.14 0.14 0.16 0.18 0.20 0.31 0.49 0.52 0.59 0.67 0.73 0.75 0.75 0.72 0.72 0.66 0.52 0.42 0.31 0.30 0.30 0.37 0.39 0.31 0.23
0.00 0.00 0.00 0.00 0.00 0.00 0.00 0.01 0.02 0.03 0.03 0.01 0.03 0.04 0.07 0.08 0.11 0.16 0.15 0.16 0.15 0.21 0.31 0.44 0.47 0.51 0.60 0.66 0.71 0.76 0.70 0.60 0.57 0.44 0.34 0.30 0.31 0.37 0.35 0.26 0.27 0.27 0.22
0.00 0.00 0.00 0.00 0.00 0.00 0.00 0.01 0.03 0.05 0.08 0.03 0.02 0.04 0.05 0.06 0.08 0.10 0.12 0.15 0.19 0.17 0.18 0.24 0.40 0.39 0.45 0.51 0.57 0.60 0.60 0.63 0.59 0.48 0.40 0.34 0.29 0.26 0.30 0.26 0.18 0.15 0.11
0.00 0.00 0.00 0.00 0.00 0.00 0.01 0.02 0.05 0.07 0.08 0.06 0.03 0.05 0.05 0.06 0.08 0.09 0.10 0.15 0.17 0.22 0.23 0.24 0.23 0.22 0.20 0.22 0.25 0.34 0.32 0.32 0.32 0.32 0.30 0.23 0.20 0.20 0.24 0.23 0.16 0.12 0.10
0.01 0.01 0.00 0.01 0.00 0.00 0.01 0.03 0.05 0.07 0.11 0.11 0.07 0.04 0.05 0.06 0.06 0.09 0.09 0.17 0.24 0.26 0.21 0.22 0.23 0.27 0.24 0.24 0.23 0.15 0.21 0.22 0.22 0.20 0.22 0.19 0.13 0.12 0.11 0.14 0.16 0.11 0.08
0.01 0.03 0.02 0.01 0.01 0.01 0.03 0.04 0.06 0.06 0.10 0.13 0.14 0.08 0.06 0.06 0.06 0.06 0.08 0.10 0.18 0.25 0.25 0.20 0.22 0.26 0.27 0.28 0.32 0.31 0.25 0.26 0.26 0.25 0.23 0.17 0.13 0.14 0.15 0.12 0.08 0.06 0.06
0.00 0.00 0.01 0.00 0.01 0.03 0.02 0.04 0.05 0.05 0.07 0.08 0.11 0.14 0.12 0.10 0.10 0.08 0.07 0.08 0.11 0.13 0.19 0.23 0.22 0.21 0.24 0.24 0.26 0.28 0.23 0.20 0.21 0.21 0.21 0.18 0.14 0.12 0.12 0.11 0.07 0.05 0.03
0.00 0.01 0.01 0.01 0.01 0.01 0.01 0.02 0.04 0.04 0.06 0.06 0.07 0.10 0.15 0.17 0.17 0.15 0.11 0.11 0.12 0.13 0.15 0.15 0.18 0.19 0.18 0.19 0.22 0.25 0.27 0.22 0.20 0.19 0.18 0.15 0.16 0.13 0.12 0.11 0.07 0.06 0.02
0.00 0.00 0.02 0.01 0.01 0.01 0.02 0.03 0.04 0.05 0.04 0.06 0.07 0.10 0.10 0.12 0.15 0.15 0.12 0.11 0.09 0.09 0.11 0.12 0.13 0.15 0.18 0.17 0.15 0.15 0.14 0.15 0.15 0.15 0.14 0.15 0.15 0.15 0.11 0.06 0.04 0.02 0.01
0.00 0.01 0.01 0.01 0.01 0.01 0.02 0.03 0.04 0.05 0.05 0.06 0.07 0.12 0.14 0.14 0.15 0.16 0.16 0.13 0.11 0.09 0.09 0.09 0.11 0.11 0.09 0.09 0.09 0.09 0.10 0.11 0.12 0.12 0.12 0.11 0.10 0.09 0.09 0.07 0.04 0.02 0.00
0.00 0.00 0.01 0.00 0.01 0.01 0.01 0.01 0.04 0.05 0.04 0.05 0.06 0.11 0.14 0.10 0.13 0.16 0.15 0.15 0.11 0.08 0.07 0.08 0.10 0.11 0.13 0.11 0.08 0.05 0.05 0.05 0.05 0.06 0.07 0.08 0.08 0.07 0.05 0.04 0.02 0.00 0.00
0.00 0.01 0.01 0.01 0.01 0.01 0.02 0.01 0.02 0.04 0.04 0.04 0.06 0.08 0.09 0.09 0.12 0.16 0.18 0.17 0.15 0.10 0.08 0.06 0.05 0.06 0.06 0.09 0.09 0.09 0.09 0.09 0.07 0.06 0.04 0.03 0.04 0.04 0.03 0.02 0.00 0.00 0.00
0.00 0.00 0.01 0.01 0.02 0.03 0.03 0.02 0.02 0.03 0.05 0.04 0.05 0.07 0.08 0.10 0.14 0.16 0.18 0.17 0.17 0.13 0.09 0.08 0.06 0.05 0.06 0.06 0.05 0.05 0.05 0.06 0.07 0.08 0.08 0.05 0.04 0.03 0.02 0.01 0.00 0.00 0.00
0.00 0.00 0.01 0.02 0.03 0.04 0.04 0.05 0.05 0.05 0.05 0.05 0.05 0.06 0.08 0.09 0.09 0.14 0.19 0.17 0.15 0.14 0.12 0.09 0.06 0.05 0.05 0.06 0.07 0.05 0.04 0.04 0.04 0.05 0.04 0.05 0.05 0.04 0.03 0.01 0.00 0.00 0.00